Date,TemperatureHighF,TemperatureAvgF,TemperatureLowF,DewpointHighF,DewpointAvgF,DewpointLowF,HumidityHigh,HumidityAvg,HumidityLow,PressureMaxIn,PressureMinIn,WindSpeedMaxMPH,WindSpeedAvgMPH,GustSpeedMaxMPH,PrecipitationSumIn
2013-1-1,29,26,25,21,18,16,81,71,60,0.00,40.00,6,2,9,0.00
2013-1-2,27,25,24,20,19,16,81,76,71,0.00,40.00,3,1,6,0.00
2013-1-3,28,25,24,20,17,14,84,71,60,0.00,40.00,5,1,7,0.00
2013-1-4,34,27,22,20,19,16,88,72,51,0.00,40.00,6,1,9,0.00
2013-1-5,30,27,25,24,22,19,92,81,71,0.00,40.00,2,1,5,0.00
2013-1-6,32,26,20,24,22,18,91,82,66,0.00,40.00,3,1,5,0.00
2013-1-7,41,33,27,35,27,24,92,80,58,0.00,40.00,12,3,20,0.00
2013-1-8,40,34,32,33,31,28,92,86,64,0.00,40.00,9,2,18,0.00
2013-1-9,47,36,31,34,29,25,96,78,48,0.00,40.00,8,3,12,0.00
2013-1-10,47,31,18,20,16,14,84,56,33,0.00,40.00,12,5,18,0.00
2013-1-11,38,21,14,19,13,10,87,73,36,0.00,40.00,5,2,9,0.00
2013-1-12,30,16,8,15,9,5,87,76,46,0.00,40.00,6,2,10,0.00
2013-1-13,25,17,9,14,10,5,83,74,54,0.00,40.00,7,2,10,0.00
2013-1-14,29,23,17,18,16,13,84,74,60,0.00,40.00,6,2,9,0.00
2013-1-15,29,17,11,18,12,8,87,81,62,0.00,40.00,6,1,9,0.00
2013-1-16,29,22,9,20,16,6,87,78,68,0.00,40.00,5,1,6,0.00
2013-1-17,28,26,24,20,19,17,81,75,71,0.00,40.00,6,2,9,0.00
2013-1-18,29,25,22,20,19,17,81,77,65,0.00,40.00,6,2,9,0.00
2013-1-19,30,26,22,21,20,17,84,77,68,0.00,40.00,5,2,6,0.00
2013-1-20,28,21,12,21,17,9,88,84,74,0.00,40.00,6,2,8,0.00
2013-1-21,25,22,19,19,17,15,88,82,71,0.00,40.00,5,2,6,0.00
2013-1-22,25,21,18,17,15,12,84,76,68,0.00,40.00,3,1,6,0.00
2013-1-23,29,25,20,24,20,16,88,80,71,0.00,40.00,7,1,10,0.00
2013-1-24,28,23,13,22,19,9,88,82,74,0.00,40.00,5,1,9,0.00
2013-1-25,37,28,22,25,22,19,91,80,56,0.00,40.00,5,1,7,0.00
2013-1-26,33,30,29,28,25,24,92,82,72,0.00,40.00,3,1,6,0.00
2013-1-27,32,28,24,25,23,20,88,82,75,0.00,40.00,3,1,6,0.00
2013-1-28,34,29,24,25,23,20,88,79,66,0.00,40.00,3,1,7,0.00
2013-1-29,35,29,27,26,25,24,88,83,69,0.00,40.00,6,2,10,0.00
2013-1-31,47,39,33,34,31,29,85,71,55,0.00,40.00,9,2,14,0.00
2013-2-1,53,37,30,31,29,26,88,74,41,0.00,40.00,9,4,15,0.00
2013-2-2,36,29,24,30,26,22,92,88,75,0.00,40.00,6,2,9,0.00
2013-2-3,34,29,24,29,26,22,95,88,78,0.00,40.00,7,2,13,0.00
2013-2-4,47,34,28,35,29,26,92,82,53,0.00,40.00,5,2,7,0.00
2013-2-5,42,35,32,35,31,29,92,84,67,0.00,40.00,8,3,13,0.00
2013-2-6,45,38,33,34,32,29,92,80,57,0.00,40.00,5,2,8,0.00
2013-2-7,50,38,32,34,27,19,92,68,31,0.00,40.00,6,3,12,0.00
2013-2-8,49,36,28,23,21,19,74,56,31,0.00,40.00,9,5,14,0.00
2013-2-9,49,37,31,26,24,21,72,59,40,0.00,40.00,12,6,16,0.00
2013-2-10,52,36,29,27,25,23,84,66,34,0.00,40.00,6,3,12,0.00
2013-2-11,41,32,26,28,26,23,88,77,57,0.00,40.00,9,3,13,0.00
2013-2-12,45,35,29,31,28,26,92,78,53,0.00,40.00,9,2,10,0.00
2013-2-13,55,42,32,31,26,20,92,55,29,0.00,40.00,10,4,17,0.00
2013-2-14,59,40,31,30,27,22,88,60,33,0.00,40.00,8,3,14,0.00
2013-2-15,50,37,28,32,28,25,92,74,42,0.00,40.00,7,2,10,0.00
2013-2-16,54,37,27,34,29,21,92,76,30,0.00,40.00,10,3,18,0.00
2013-2-17,53,40,33,31,24,17,88,54,27,0.00,40.00,9,5,17,0.00
2013-2-18,41,34,28,28,25,23,84,71,50,0.00,40.00,7,2,10,0.00
2013-2-19,49,37,29,27,24,19,81,62,31,0.00,40.00,5,2,9,0.00
2013-2-20,48,35,25,24,23,21,88,64,35,0.00,40.00,7,3,12,0.00
2013-2-21,52,36,28,29,26,23,84,69,39,0.00,40.00,7,3,12,0.00
2013-2-22,39,34,30,37,31,27,92,88,69,0.00,40.00,6,2,10,0.00
2013-2-23,50,40,32,28,24,20,81,53,30,0.00,40.00,12,6,25,0.00
2013-2-24,46,37,32,29,25,20,78,63,44,0.00,40.00,7,3,14,0.00
2013-2-25,52,39,31,34,27,18,92,65,27,0.00,40.00,13,4,24,0.00
2013-2-26,51,40,34,26,22,20,64,49,30,0.00,40.00,7,4,14,0.00
2013-2-27,54,40,29,29,26,23,84,59,33,0.00,40.00,7,3,12,0.00
2013-2-28,39,38,37,36,34,28,92,83,66,0.00,40.00,8,3,12,0.00
2013-3-1,67,46,36,41,35,33,92,69,31,0.00,40.00,10,3,15,0.00
2013-3-2,60,46,36,37,33,22,88,64,32,0.00,40.00,10,4,24,0.00
2013-3-3,50,41,31,24,19,16,63,42,27,0.00,40.00,13,6,24,0.00
2013-3-4,48,37,28,23,20,18,68,52,31,0.00,40.00,12,5,17,0.00
2013-3-5,44,35,28,31,26,21,92,70,43,0.00,40.00,6,1,9,0.00
2013-3-6,40,35,33,35,33,31,92,90,82,0.00,40.00,2,1,6,0.00
2013-3-7,56,41,34,38,33,28,92,78,35,0.00,40.00,6,3,10,0.00
2013-3-8,55,41,31,33,29,26,92,67,32,0.00,40.00,9,4,13,0.00
2013-3-9,64,43,30,27,23,16,84,51,17,0.00,40.00,14,5,18,0.00
2013-3-10,59,48,37,31,28,23,72,46,34,0.00,40.00,8,5,15,0.00
2013-3-11,53,43,31,32,27,22,88,57,29,0.00,40.00,7,4,12,0.00
2013-3-12,64,49,40,39,35,32,78,59,36,0.00,40.00,9,4,13,0.00
2013-3-13,63,50,40,40,38,36,85,64,41,0.00,40.00,8,4,14,0.00
2013-3-14,63,52,44,43,38,29,82,61,34,0.00,40.00,7,4,13,0.00
2013-3-15,64,51,40,40,35,32,79,56,32,0.00,40.00,12,4,17,0.00
2013-3-16,58,45,35,38,33,30,88,67,34,0.00,40.00,8,4,22,0.00
2013-3-17,50,39,33,32,25,18,92,61,29,0.00,40.00,9,4,17,0.00
2013-3-18,52,39,27,31,24,19,88,58,27,0.00,40.00,12,5,20,0.00
2013-3-19,48,37,28,32,24,19,92,62,32,0.00,40.00,9,3,14,0.00
2013-3-20,49,38,33,37,31,16,92,78,35,0.00,40.00,14,3,25,0.00
2013-3-21,50,39,32,30,23,16,75,55,26,0.00,40.00,10,4,20,0.00
2013-3-22,52,37,29,25,20,14,75,53,26,0.00,40.00,7,4,14,0.00
2013-3-23,50,36,27,22,20,17,68,53,32,0.00,40.00,9,4,12,0.00
2013-3-24,33,29,27,23,22,20,77,72,60,0.00,40.00,6,3,9,0.00
2013-3-25,54,44,29,25,23,20,81,45,27,0.00,40.00,7,4,12,0.00
2013-3-26,62,45,30,31,28,24,81,54,28,0.00,40.00,9,3,13,0.00
2013-3-27,58,48,39,36,33,31,75,57,37,0.00,40.00,7,3,16,0.00
2013-3-28,65,48,36,39,35,32,85,64,34,0.00,40.00,6,3,12,0.00
2013-3-29,48,42,38,36,34,32,79,73,62,0.00,40.00,8,6,13,0.00
2013-3-30,69,56,37,37,30,-100,81,49,30,0.00,40.00,7,4,13,0.00
2013-3-31,74,54,37,40,36,33,85,55,26,0.00,40.00,9,4,17,0.00
2013-4-1,74,50,41,42,35,33,79,59,31,0.00,40.00,8,4,14,0.00
2013-4-2,46,46,46,36,36,36,67,67,67,0.00,40.00,9,9,15,0.00
2013-4-3,70,61,53,39,37,35,58,42,31,0.00,40.00,6,4,12,0.00
2013-4-4,56,50,46,47,42,36,92,74,48,0.00,40.00,6,2,12,0.00
2013-4-5,62,50,45,44,41,37,92,72,44,0.00,40.00,9,3,15,0.00
2013-4-6,49,45,44,42,41,40,89,84,73,0.00,40.00,3,2,6,0.00
2013-4-8,62,50,40,36,33,30,75,54,30,0.00,40.00,7,3,12,0.00
2013-4-9,60,48,35,35,32,30,85,55,34,0.00,40.00,7,3,12,0.00
2013-4-10,57,49,43,49,37,30,83,63,35,0.00,40.00,17,5,32,0.00
2013-4-11,62,48,35,36,28,22,88,50,25,0.00,40.00,16,4,24,0.00
2013-4-12,53,42,35,37,30,25,82,65,39,0.00,40.00,8,4,14,0.00
2013-4-13,51,44,34,34,28,19,88,56,34,0.00,40.00,13,5,24,0.00
2013-4-15,47,44,40,37,34,32,85,68,55,0.00,40.00,3,1,7,0.00
2013-4-16,55,45,37,34,27,20,85,54,26,0.00,40.00,6,2,12,0.00
2013-4-17,61,46,31,30,27,25,81,52,26,0.00,40.00,6,3,14,0.00
2013-4-18,68,51,40,38,33,28,72,51,33,0.00,40.00,7,4,15,0.00
2013-4-19,63,52,44,38,37,35,79,57,37,0.00,40.00,7,3,15,0.00
2013-4-20,63,54,45,38,34,31,70,49,32,0.00,40.00,15,6,31,0.00
2013-4-21,61,48,34,36,30,25,92,54,28,0.00,40.00,10,3,18,0.00
2013-4-22,64,47,33,30,26,20,81,49,19,0.00,40.00,7,3,15,0.00
2013-4-23,66,49,35,32,28,25,72,47,24,0.00,40.00,6,3,15,0.00
2013-4-24,74,55,36,37,31,24,81,44,21,0.00,40.00,7,4,16,0.00
2013-4-25,78,59,43,44,35,24,62,41,28,0.00,40.00,10,5,20,0.00
2013-4-26,82,62,48,46,38,30,70,45,21,0.00,40.00,9,4,18,0.00
2013-4-27,70,55,41,42,37,34,79,53,33,0.00,40.00,9,4,24,0.00
2013-4-28,59,48,40,39,35,30,88,62,34,0.00,40.00,7,4,14,0.00
2013-4-29,55,47,41,40,28,17,92,52,23,0.00,40.00,16,7,30,0.00
2013-4-30,58,45,33,30,24,20,81,45,24,0.00,40.00,13,3,22,0.00
2013-5-1,65,48,31,31,27,23,81,48,25,0.00,40.00,7,4,13,0.00
2013-5-2,72,56,37,40,34,29,75,47,25,0.00,40.00,6,3,10,0.00
2013-5-3,81,61,45,42,38,33,67,45,24,0.00,40.00,10,4,15,0.00
2013-5-4,79,62,44,43,39,38,79,48,24,0.00,40.00,12,4,17,0.00
2013-5-5,84,63,45,46,40,37,73,46,21,0.00,40.00,9,4,13,0.00
2013-5-6,91,65,46,48,41,36,67,45,18,0.00,40.00,8,3,12,0.00
2013-5-7,91,71,53,55,46,38,58,42,25,0.00,40.00,9,4,16,0.00
2013-5-8,91,72,55,55,50,46,71,47,27,0.00,40.00,8,4,14,0.00
2013-5-9,93,70,52,50,46,41,74,46,20,0.00,40.00,12,5,16,0.00
2013-5-10,91,66,53,55,39,-100,61,45,26,0.00,40.00,10,5,18,0.00
2013-5-11,90,69,58,54,46,-100,59,48,28,0.00,40.00,7,4,13,0.00
2013-5-12,77,67,59,54,50,48,72,56,43,0.00,40.00,9,3,15,0.00
2013-5-13,69,58,47,52,46,38,83,67,45,0.00,40.00,7,3,16,0.00
2013-5-14,69,54,40,41,37,32,88,57,29,0.00,40.00,6,3,18,0.00
2013-5-15,69,57,42,47,39,35,79,54,33,0.00,40.00,7,3,12,0.00
2013-5-16,75,57,48,47,37,-100,86,61,34,0.00,40.00,14,4,25,0.00
2013-5-17,67,59,51,51,45,39,83,62,45,0.00,40.00,8,4,14,0.00
2013-5-18,70,60,49,43,40,35,70,48,34,0.00,40.00,7,4,21,0.00
2013-5-19,75,59,45,44,39,36,70,49,32,0.00,40.00,10,5,20,0.00
2013-5-20,76,64,47,46,43,39,79,49,33,0.00,40.00,12,5,18,0.00
2013-5-21,61,53,45,50,43,35,89,69,47,0.00,40.00,7,4,10,0.00
2013-5-22,52,46,43,43,40,37,92,79,58,0.00,40.00,12,3,17,0.00
2013-5-23,58,48,43,45,42,38,92,78,49,0.00,40.00,5,2,9,0.00
2013-5-24,65,52,43,42,40,36,89,66,41,0.00,40.00,7,3,15,0.00
2013-5-25,68,55,42,45,39,36,85,59,32,0.00,40.00,7,3,13,0.00
2013-5-26,68,55,46,51,44,41,86,69,41,0.00,40.00,8,3,13,0.00
2013-5-27,55,48,43,46,42,40,89,81,61,0.00,40.00,7,3,13,0.00
2013-5-28,71,62,50,47,41,36,86,48,33,0.00,40.00,7,4,12,0.00
2013-5-29,68,54,48,48,42,36,89,64,45,0.00,40.00,9,3,13,0.00
2013-5-30,70,56,42,41,36,33,85,51,28,0.00,40.00,7,5,15,0.00
2013-5-31,74,59,44,42,38,35,73,50,28,0.00,40.00,9,5,17,0.00
2013-6-1,78,62,49,46,43,39,76,52,29,0.00,40.00,8,3,13,0.00
2013-6-2,75,62,50,47,41,38,79,49,29,0.00,40.00,9,4,17,0.00
2013-6-3,81,64,48,47,43,40,73,50,26,0.00,40.00,6,3,13,0.00
2013-6-4,82,66,50,51,46,42,76,51,29,0.00,40.00,10,4,14,0.00
2013-6-5,89,71,55,53,49,45,74,48,27,0.00,40.00,6,4,16,0.00
2013-6-6,92,74,56,52,47,42,69,40,25,0.00,40.00,7,4,18,0.00
2013-6-7,84,70,62,56,47,40,54,43,38,0.00,40.00,9,6,21,0.00
2013-6-8,86,67,54,49,44,39,61,44,26,0.00,40.00,10,5,18,0.00
2013-6-9,79,65,49,46,41,36,76,44,26,0.00,40.00,9,4,16,0.00
2013-6-10,83,63,48,46,41,37,68,48,27,0.00,40.00,9,5,14,0.00
2013-6-11,72,61,51,46,42,37,71,50,33,0.00,40.00,9,5,23,0.00
2013-6-12,75,61,44,45,40,36,76,48,31,0.00,40.00,8,4,13,0.00
2013-6-13,73,58,46,47,40,37,73,53,33,0.00,40.00,10,5,15,0.00
2013-6-14,80,63,48,49,43,38,70,50,33,0.00,40.00,9,5,15,0.00
2013-6-15,83,67,46,58,48,42,85,53,30,0.00,40.00,7,3,12,0.00
2013-6-16,90,71,54,55,50,44,74,49,28,0.00,40.00,7,4,14,0.00
2013-6-17,70,64,60,53,51,49,74,62,49,0.00,40.00,8,3,10,0.00
2013-6-18,71,62,56,55,51,47,89,68,43,0.00,40.00,12,4,24,0.00
2013-6-19,71,59,53,52,45,38,89,63,34,0.00,40.00,9,4,21,0.00
2013-6-20,66,59,57,43,39,37,49,46,43,0.00,40.00,7,4,13,0.00
2013-6-22,78,69,53,50,47,46,79,46,35,0.00,40.00,7,4,15,0.00
2013-6-23,76,66,57,56,51,48,77,59,38,0.00,40.00,6,3,12,0.00
2013-6-24,66,61,54,59,55,51,89,80,58,0.00,40.00,7,2,12,0.00
2013-6-25,67,59,50,56,51,47,92,76,58,0.00,40.00,10,3,15,0.00
2013-6-26,73,63,53,53,50,48,86,66,42,0.00,40.00,9,2,12,0.00
2013-6-27,73,62,56,56,53,49,89,73,49,0.00,40.00,9,4,13,0.00
2013-6-28,93,74,58,60,57,53,86,57,32,0.00,40.00,7,4,12,0.00
2013-6-29,84,73,65,66,62,57,87,69,47,0.00,40.00,7,4,12,0.00
2013-6-30,95,76,60,64,58,56,89,59,28,0.00,40.00,8,4,13,0.00
2013-7-1,99,79,64,66,60,56,75,54,27,0.00,40.00,8,4,14,0.00
2013-7-2,104,83,68,65,58,47,70,45,24,0.00,40.00,9,4,15,0.00
2013-7-3,95,78,63,52,47,39,60,34,22,0.00,40.00,8,5,13,0.00
2013-7-4,85,72,62,47,44,42,51,37,25,0.00,40.00,9,6,17,0.00
2013-7-5,83,72,57,53,48,43,59,43,34,0.00,40.00,8,6,16,0.00
2013-7-6,90,71,56,55,50,46,71,49,26,0.00,40.00,10,4,16,0.00
2013-7-7,90,72,60,61,55,50,86,57,30,0.00,40.00,9,4,13,0.00
2013-7-8,92,74,59,58,51,48,86,49,23,0.00,40.00,7,4,13,0.00
2013-7-9,95,76,61,59,54,50,69,48,25,0.00,40.00,10,4,14,0.00
2013-7-10,94,77,63,56,50,38,69,41,25,0.00,40.00,9,5,16,0.00
2013-7-11,78,68,58,46,42,36,57,40,29,0.00,40.00,8,4,20,0.00
2013-7-12,69,63,58,43,40,37,49,42,38,0.00,40.00,6,4,12,0.00
2013-7-15,89,75,60,49,47,45,62,39,23,0.00,40.00,3,2,9,0.00
2013-7-16,88,70,51,59,50,44,76,52,27,0.00,40.00,6,3,13,0.00
2013-7-17,96,78,65,60,54,47,60,44,28,0.00,40.00,9,5,17,0.00
2013-7-18,96,74,58,58,51,46,64,45,28,0.00,40.00,8,4,14,0.00
2013-7-19,97,75,60,57,50,44,59,42,19,0.00,40.00,9,6,14,0.00
2013-7-20,89,72,60,55,47,43,55,41,20,0.00,40.00,10,6,17,0.00
2013-7-21,83,74,60,54,47,38,45,38,31,0.00,40.00,7,4,13,0.00
2013-7-22,90,76,62,56,51,45,55,43,30,0.00,40.00,8,6,13,0.00
2013-7-23,94,76,63,59,54,49,60,47,27,0.00,40.00,9,5,14,0.00
2013-7-24,91,75,62,56,52,48,60,46,27,0.00,40.00,10,6,15,0.00
2013-7-25,86,74,63,55,50,46,55,43,25,0.00,40.00,8,5,16,0.00
2013-7-26,81,70,60,51,46,41,51,42,31,0.00,40.00,10,5,17,0.00
2013-7-27,85,71,63,50,46,42,49,40,28,0.00,40.00,9,5,15,0.00
2013-7-28,83,70,56,50,47,41,57,44,31,0.00,40.00,8,6,14,0.00
2013-7-29,89,72,57,58,52,46,69,51,31,0.00,40.00,7,4,12,0.00
2013-7-30,85,72,61,60,53,49,67,52,39,0.00,40.00,7,4,15,0.00
2013-7-31,85,72,62,64,54,49,67,55,40,0.00,40.00,9,4,17,0.00
2013-8-1,92,72,60,62,54,52,74,55,34,0.00,40.00,7,4,13,0.00
2013-8-2,81,66,59,56,50,44,89,58,32,0.00,40.00,7,4,13,0.00
2013-8-3,84,70,56,55,52,47,77,55,33,0.00,40.00,9,4,13,0.00
2013-8-4,89,72,59,62,56,52,81,60,30,0.00,40.00,13,4,18,0.00
2013-8-5,100,76,60,60,54,48,83,53,20,0.00,40.00,9,4,14,0.00
2013-8-6,98,76,61,55,49,43,59,40,21,0.00,40.00,10,5,15,0.00
2013-8-7,98,78,61,55,48,42,49,36,22,0.00,40.00,12,6,16,0.00
2013-8-8,97,79,63,57,52,46,53,41,25,0.00,40.00,9,4,13,0.00
2013-8-9,101,81,64,61,57,53,67,46,24,0.00,40.00,9,4,14,0.00
2013-8-10,92,76,66,62,59,50,83,58,29,0.00,40.00,10,4,20,0.00
2013-8-11,91,72,62,65,58,53,89,65,28,0.00,40.00,12,4,20,0.00
2013-8-12,89,70,58,59,54,51,89,62,28,0.00,40.00,9,4,13,0.00
2013-8-13,90,76,60,57,52,50,74,46,26,0.00,40.00,7,5,13,0.00
2013-8-14,91,74,60,58,52,49,69,47,31,0.00,40.00,6,4,13,0.00
2013-8-15,84,75,67,59,47,-100,65,50,41,0.00,40.00,8,5,13,0.00
2013-8-16,87,71,59,56,54,50,80,56,31,0.00,40.00,9,4,13,0.00
2013-8-17,87,70,60,56,45,-100,69,46,32,0.00,40.00,9,5,15,0.00
2013-8-18,92,73,57,56,50,46,69,47,28,0.00,40.00,12,5,17,0.00
2013-8-19,84,69,58,54,43,-100,71,52,32,0.00,40.00,8,4,22,0.00
2013-8-20,91,72,58,50,48,44,64,45,24,0.00,40.00,10,5,16,0.00
2013-8-21,89,70,53,58,49,42,66,49,27,0.00,40.00,10,4,15,0.00
2013-8-22,87,70,56,59,52,46,69,55,32,0.00,40.00,6,3,14,0.00
2013-8-23,85,72,64,60,54,49,80,55,38,0.00,40.00,9,4,13,0.00
2013-8-24,87,66,57,55,44,-100,71,50,31,0.00,40.00,9,4,13,0.00
2013-8-25,78,67,58,57,52,47,77,58,38,0.00,40.00,6,3,9,0.00
2013-8-26,75,65,55,56,54,51,86,67,51,0.00,40.00,12,4,16,0.00
2013-8-27,78,64,57,56,54,51,83,70,43,0.00,40.00,7,4,13,0.00
2013-8-28,82,72,65,66,60,56,83,66,42,0.00,40.00,7,4,12,0.00
2013-8-29,76,68,64,59,57,55,80,68,48,0.00,40.00,7,5,14,0.00
2013-8-30,83,68,58,57,51,45,86,58,30,0.00,40.00,7,4,12,0.00
2013-8-31,85,64,51,54,43,-100,82,54,30,0.00,40.00,7,4,13,0.00
2013-9-1,92,72,55,56,52,48,80,53,25,0.00,40.00,7,3,10,0.00
2013-9-2,93,75,61,57,54,50,67,50,26,0.00,40.00,9,5,15,0.00
2013-9-3,90,73,64,62,58,54,80,61,36,0.00,40.00,6,4,14,0.00
2013-9-4,90,74,62,60,56,54,75,56,35,0.00,40.00,8,4,14,0.00
2013-9-5,88,72,64,62,59,56,89,66,39,0.00,40.00,7,2,14,0.00
2013-9-6,69,62,58,60,55,52,89,79,56,0.00,40.00,6,2,9,0.00
2013-9-7,66,58,57,57,48,-100,86,77,65,0.00,40.00,7,2,12,0.00
2013-9-8,87,67,54,53,51,49,86,60,29,0.00,40.00,8,4,13,0.00
2013-9-9,88,69,58,53,51,48,72,53,30,0.00,40.00,9,5,18,0.00
2013-9-10,92,71,56,56,51,48,74,52,27,0.00,40.00,8,4,13,0.00
2013-9-11,96,72,56,59,53,50,80,54,26,0.00,40.00,6,4,14,0.00
2013-9-12,97,74,58,61,54,51,80,52,26,0.00,40.00,7,2,12,0.00
2013-9-13,101,75,61,61,55,52,74,52,23,0.00,40.00,7,4,15,0.00
2013-9-14,96,71,61,64,50,-100,75,53,29,0.00,40.00,7,3,14,0.00
2013-9-15,95,74,61,62,57,53,80,58,26,0.00,40.00,8,3,15,0.00
2013-9-16,78,67,59,56,50,44,86,58,33,0.00,40.00,6,3,13,0.00
2013-9-17,75,61,53,51,45,40,79,58,38,0.00,40.00,10,5,17,0.00
2013-9-18,59,54,51,39,38,37,60,53,47,0.00,40.00,7,5,15,0.00
2013-9-19,71,55,42,44,40,36,82,58,35,0.00,40.00,12,5,17,0.00
2013-9-20,79,58,42,48,43,37,85,59,33,0.00,40.00,5,2,12,0.00
2013-9-21,78,60,52,48,38,-100,77,51,29,0.00,40.00,10,3,14,0.00
2013-9-22,67,52,46,48,44,41,89,75,41,0.00,40.00,7,3,14,0.00
2013-9-23,63,53,47,46,44,43,89,73,47,0.00,40.00,7,3,10,0.00
2013-9-24,70,55,47,43,39,36,79,59,29,0.00,40.00,7,4,13,0.00
2013-9-25,72,59,47,40,38,35,73,49,28,0.00,40.00,5,3,10,0.00
2013-9-26,71,51,46,44,39,37,76,65,33,0.00,40.00,6,3,10,0.00
2013-9-27,57,49,43,47,41,36,89,74,54,0.00,40.00,10,3,17,0.00
2013-9-28,55,48,46,49,40,-100,92,85,77,0.00,40.00,6,2,10,0.00
2013-9-29,61,50,43,48,44,38,92,80,43,0.00,40.00,5,2,7,0.00
2013-9-30,57,47,42,44,40,36,89,76,52,0.00,40.00,9,4,13,0.00
2013-10-1,60,47,42,35,34,31,76,62,39,0.00,40.00,5,3,10,0.00
2013-10-2,53,46,41,43,39,35,89,77,52,0.00,40.00,5,2,10,0.00
2013-10-3,45,42,38,42,39,35,92,89,85,0.00,40.00,5,4,12,0.00
2013-10-9,55,50,48,40,38,37,65,63,54,0.00,40.00,3,2,7,0.00
2013-10-10,67,51,43,37,35,33,70,56,30,0.00,40.00,10,4,15,0.00
2013-10-11,61,47,38,40,36,33,82,67,34,0.00,40.00,6,3,9,0.00
2013-10-12,61,46,45,42,33,-100,76,67,45,0.00,40.00,5,2,9,0.00
2013-10-13,66,47,37,38,36,34,92,68,30,0.00,40.00,10,3,14,0.00
2013-10-14,63,46,35,37,34,32,88,67,32,0.00,40.00,6,3,9,0.00
2013-10-15,60,46,35,39,35,31,88,67,36,0.00,40.00,6,3,9,0.00
2013-10-16,67,50,39,41,39,36,89,68,34,0.00,40.00,6,2,10,0.00
2013-10-17,65,48,37,39,37,35,92,70,36,0.00,40.00,6,4,10,0.00
2013-10-18,63,47,37,39,37,34,92,71,39,0.00,40.00,6,3,9,0.00
2013-10-19,65,44,33,41,31,-100,92,71,38,0.00,40.00,6,2,9,0.00
2013-10-20,73,51,40,42,39,37,89,67,32,0.00,40.00,6,3,9,0.00
2013-10-21,74,52,41,44,41,37,88,69,34,0.00,40.00,6,3,9,0.00
2013-10-22,68,50,40,44,41,37,92,72,40,0.00,40.00,7,4,9,0.00
2013-10-23,67,49,39,43,40,37,92,73,40,0.00,40.00,6,4,10,0.00
2013-10-24,65,49,38,43,39,35,92,72,39,0.00,40.00,7,4,9,0.00
2013-10-25,63,46,37,42,39,34,92,76,44,0.00,40.00,6,4,9,0.00
2013-10-26,65,45,38,42,33,-100,92,73,38,0.00,40.00,6,3,7,0.00
2013-10-27,55,49,39,43,39,33,88,70,44,0.00,40.00,5,2,9,0.00
2013-10-28,57,46,33,35,27,23,72,48,26,0.00,40.00,7,3,14,0.00
2013-10-29,54,37,28,29,26,23,84,67,34,0.00,40.00,7,3,10,0.00
2013-10-30,52,36,25,32,28,23,92,73,39,0.00,40.00,6,2,10,0.00
2013-10-31,67,49,39,39,34,31,78,59,30,0.00,40.00,7,3,21,0.00
2013-11-1,64,46,37,38,35,30,85,68,38,0.00,40.00,6,3,12,0.00
2013-11-2,45,44,44,42,40,37,92,84,76,0.00,40.00,1,1,3,0.00
2013-11-3,45,37,33,28,26,24,75,65,43,0.00,40.00,6,4,12,0.00
2013-11-4,52,37,28,26,24,17,84,61,26,0.00,40.00,9,3,12,0.00
2013-11-5,43,36,30,33,29,26,88,76,57,0.00,40.00,7,2,8,0.00
2013-11-6,41,36,32,35,32,29,92,84,67,0.00,40.00,3,2,6,0.00
2013-11-7,39,36,33,36,34,31,92,91,88,0.00,40.00,6,2,9,0.00
2013-11-8,57,41,34,39,34,30,92,80,38,0.00,40.00,9,3,12,0.00
2013-11-9,43,35,29,36,27,-100,92,81,62,0.00,40.00,3,2,7,0.00
2013-11-10,45,40,37,38,36,34,92,85,67,0.00,40.00,3,1,5,0.00
2013-11-11,49,44,41,41,39,36,92,82,63,0.00,40.00,3,1,5,0.00
2013-11-12,52,45,43,44,41,40,92,85,65,0.00,40.00,3,1,5,0.00
2013-11-13,61,47,42,42,38,33,89,72,40,0.00,40.00,7,3,14,0.00
2013-11-14,60,43,36,36,32,27,82,66,31,0.00,40.00,10,4,15,0.00
2013-11-15,51,42,37,36,30,25,88,62,37,0.00,40.00,13,5,17,0.00
2013-11-16,53,38,33,36,23,-100,92,65,29,0.00,40.00,6,3,12,0.00
2013-11-17,43,35,29,34,31,26,92,83,67,0.00,40.00,5,2,13,0.00
2013-11-18,52,41,32,41,37,29,92,85,61,0.00,40.00,3,2,7,0.00
2013-11-19,53,42,32,39,30,20,88,64,30,0.00,40.00,8,4,22,0.00
2013-11-20,39,30,22,23,17,13,77,59,35,0.00,40.00,7,3,10,0.00
2013-11-21,36,24,17,19,15,13,87,70,41,0.00,40.00,7,2,9,0.00
2013-11-22,36,24,16,20,16,13,87,72,41,0.00,40.00,5,2,7,0.00
2013-11-23,37,24,16,19,11,-100,87,66,41,0.00,40.00,6,2,7,0.00
2013-11-24,41,29,19,21,18,15,87,65,39,0.00,40.00,7,2,9,0.00
2013-11-25,41,30,22,24,21,18,84,70,44,0.00,40.00,5,1,7,0.00
2013-11-26,39,29,23,26,23,20,88,77,54,0.00,40.00,3,1,6,0.00
2013-11-27,41,30,25,27,24,22,88,78,50,0.00,40.00,5,1,6,0.00
2013-11-28,40,28,22,27,23,19,92,82,57,0.00,40.00,6,2,9,0.00
2013-11-29,32,29,20,29,26,18,92,87,81,0.00,40.00,2,1,6,0.00
2013-11-30,35,32,31,30,23,-100,88,80,78,0.00,40.00,7,2,9,0.00
2013-12-1,40,35,32,35,32,30,92,90,75,0.00,40.00,6,3,12,0.00
2013-12-2,42,35,31,33,28,23,92,74,56,0.00,40.00,9,3,13,0.00
2013-12-3,35,25,16,22,17,11,88,72,45,0.00,40.00,5,2,9,0.00
2013-12-4,31,18,10,15,11,6,87,74,40,0.00,40.00,6,1,10,0.00
2013-12-5,22,18,12,13,9,5,83,70,47,0.00,40.00,6,2,9,0.00
2013-12-6,21,18,15,14,11,9,84,76,61,0.00,40.00,5,1,7,0.00
2013-12-7,24,9,2,6,-3,-100,79,67,37,0.00,40.00,6,2,12,0.00
2013-12-8,24,10,4,7,4,-1,83,74,45,0.00,40.00,6,2,9,0.00
2013-12-9,20,11,4,10,5,0,83,77,59,0.00,40.00,6,2,9,0.00
2013-12-10,28,16,8,14,10,4,87,75,46,0.00,40.00,6,1,7,0.00
2013-12-11,28,23,19,17,16,13,84,72,55,0.00,40.00,3,1,6,0.00
2013-12-12,32,24,19,20,18,15,87,77,60,0.00,40.00,5,1,6,0.00
2013-12-13,34,25,17,22,19,14,88,79,56,0.00,40.00,3,1,9,0.00
2013-12-14,37,26,22,26,17,-100,91,78,56,0.00,40.00,6,1,7,0.00
2013-12-15,39,31,22,27,24,20,92,78,61,0.00,40.00,10,4,18,0.00
2013-12-16,51,34,24,30,26,22,92,75,37,0.00,40.00,10,4,15,0.00
2013-12-17,31,28,23,28,26,20,92,90,88,0.00,40.00,7,1,9,0.00
2013-12-18,46,31,25,31,21,14,92,70,30,0.00,40.00,8,3,18,0.00
2013-12-19,38,25,19,19,16,12,84,68,41,0.00,40.00,7,2,10,0.00
2013-12-20,28,22,17,22,17,14,91,81,60,0.00,40.00,5,2,7,0.00
2013-12-21,30,23,21,24,15,-100,91,83,74,0.00,40.00,3,1,6,0.00
2013-12-22,32,26,22,24,22,19,91,84,69,0.00,40.00,2,1,3,0.00
2013-12-23,43,33,23,35,26,21,91,76,46,0.00,40.00,8,3,20,0.00
2013-12-24,43,32,23,28,24,20,88,76,44,0.00,40.00,9,4,14,0.00
2013-12-25,34,24,16,25,20,13,92,85,66,0.00,40.00,7,1,12,0.00
2013-12-26,38,28,22,26,23,19,92,83,61,0.00,40.00,7,2,9,0.00
2013-12-27,35,29,21,29,26,19,92,87,75,0.00,40.00,7,2,9,0.00
2013-12-28,30,27,26,28,21,-100,95,88,88,0.00,40.00,7,2,10,0.00
2013-12-29,29,28,26,26,25,24,95,92,88,0.00,40.00,3,2,6,0.00
2013-12-30,34,31,29,28,27,26,92,87,75,0.00,40.00,3,1,6,0.00
2013-12-31,44,33,27,33,28,23,92,82,59,0.00,40.00,6,2,10,0.00
2014-1-1,30,29,27,28,27,25,95,92,88,0.00,40.00,5,1,6,0.00
2014-1-2,35,32,28,30,28,26,92,87,75,0.00,40.00,3,1,6,0.00